Погода в Шапкине

Россия / Красноярский край     57°52′20″N   93°02′40″E
темп.,
°C
ветер,
м/с
пор.,
м/с
влажн.,
%
обл.,
%
осадки,
мм/ч
давл.,
гПа
погр.,
м
6 мая, чт
чт601:00+4ю2798100 4.9 1009235
04:00+5зсз2598100 1.1 1009193
07:00+4ссз139892 1.1 1010188
10:00+6с128584 0.0 1011511
13:00+9с237398 0.0 1011838
16:00+12св116652 0.0 1011900
19:00+9в477614 0.0 1011436
22:00+5вюв41183100 0.0 1012358
7 мая, пт
пт701:00+4вюв51286100 0.0 1011400
04:00+4вюв51384100 0.0 1010426
07:00+5вюв61476100 0.0 1009513
10:00+8вюв71465100 0.0 1007553
13:00+13юв6956100 0.1 1005847
16:00+8юв51185100 1.3 1004427
19:00+9з4119272 2.5 1005617
22:00+7з259190 0.0 100783
8 мая, сб
сб801:00+6зюз412895 0.1 1008365
04:00+5зюз4119296 0.0 1010351
07:00+6з41086100 0.1 1012641
10:00+8з5861100 0.1 10121606
13:00+8зюз51075100 0.5 10121162
16:00+10зюз3859100 0.4 10101598
19:00+8зюз3780100 1.0 1010781
22:00+6зсз3690100 2.1 1010750
9 мая, вс
вс901:00+3сз388893 2.3 1011432
04:00+3зсз4884100 0.0 1012747
07:00+2зсз4791100 0.0 1013812
10:00+3зсз4996100 0.1 1015601
13:00+5сз388594 0.1 1017767
16:00+7сз477595 0.1 1018821
19:00+7зсз367321 0.1 1020675
22:00+4зсз259179 0.0 1021107
10 мая, пн
пн1001:00+4сз229190 0.1 102159
04:00+2сз11938 0.0 102111
07:00+5ссз128378 0.0 1022155
10:00+7св127598 0.0 1022403
13:00+13всв244932 0.0 10201721
16:00+13всв454686 0.0 10191631
19:00+12всв375265 0.0 1019792
22:00+6св210755 0.0 1020226